Time,TemperatureF,DewpointF,PressureIn,WindDirection,WindDirectionDegrees,WindSpeedMPH,WindSpeedGustMPH,Humidity,HourlyPrecipIn,Conditions,Clouds,dailyrainin,SoftwareType,DateUTC
2013-04-17 00:13:00,41.7,39.0,30.49,NW,307,0.0,0.0,91,0.00,,,0.00,weatherlink.com 1.10,2013-04-17 07:13:00,
2013-04-17 00:28:00,41.5,39.0,30.49,NW,308,0.0,0.0,91,0.00,,,0.00,weatherlink.com 1.10,2013-04-17 07:28:00,
2013-04-17 00:43:00,40.6,39.0,30.49,NW,308,0.0,0.0,92,0.00,,,0.00,weatherlink.com 1.10,2013-04-17 07:43:00,
2013-04-17 00:58:00,40.1,39.0,30.50,NW,308,0.0,0.0,94,0.00,,,0.00,weatherlink.com 1.10,2013-04-17 07:58:00,
2013-04-17 01:13:00,39.9,38.0,30.51,NW,308,0.0,0.0,94,0.00,,,0.00,weatherlink.com 1.10,2013-04-17 08:13:00,
2013-04-17 01:28:00,39.6,38.0,30.51,NW,308,0.0,0.0,94,0.00,,,0.00,weatherlink.com 1.10,2013-04-17 08:28:00,
2013-04-17 01:43:00,38.9,37.0,30.51,NW,307,0.0,0.0,94,0.00,,,0.00,weatherlink.com 1.10,2013-04-17 08:43:00,
2013-04-17 01:59:00,38.9,38.0,30.52,NW,308,0.0,0.0,95,0.00,,,0.00,weatherlink.com 1.10,2013-04-17 08:59:00,
2013-04-17 02:29:00,38.4,37.0,30.51,NW,308,0.0,0.0,95,0.00,,,0.00,weatherlink.com 1.10,2013-04-17 09:29:00,
2013-04-17 02:44:00,37.9,37.0,30.51,NW,308,0.0,0.0,96,0.00,,,0.00,weatherlink.com 1.10,2013-04-17 09:44:00,
2013-04-17 02:59:00,37.2,36.0,30.51,NW,308,0.0,0.0,95,0.00,,,0.00,weatherlink.com 1.10,2013-04-17 09:59:00,
2013-04-17 03:14:00,36.3,35.0,30.51,NW,308,0.0,0.0,95,0.00,,,0.00,weatherlink.com 1.10,2013-04-17 10:14:00,
2013-04-17 03:29:00,36.4,35.0,30.51,NW,308,0.0,0.0,96,0.00,,,0.00,weatherlink.com 1.10,2013-04-17 10:29:00,
2013-04-17 03:44:00,36.2,35.0,30.52,NW,308,0.0,0.0,96,0.00,,,0.00,weatherlink.com 1.10,2013-04-17 10:44:00,
2013-04-17 03:59:00,36.3,36.0,30.52,NW,308,0.0,0.0,97,0.00,,,0.00,weatherlink.com 1.10,2013-04-17 10:59:00,
2013-04-17 04:14:00,36.0,35.0,30.52,NW,308,0.0,0.0,96,0.00,,,0.00,weatherlink.com 1.10,2013-04-17 11:14:00,
2013-04-17 04:29:00,35.3,34.0,30.52,NW,308,0.0,0.0,96,0.00,,,0.00,weatherlink.com 1.10,2013-04-17 11:29:00,
2013-04-17 04:44:00,35.7,35.0,30.52,NW,308,0.0,0.0,97,0.00,,,0.00,weatherlink.com 1.10,2013-04-17 11:44:00,
2013-04-17 04:59:00,35.2,34.0,30.53,NW,308,0.0,0.0,96,0.00,,,0.00,weatherlink.com 1.10,2013-04-17 11:59:00,
2013-04-17 05:14:00,35.6,35.0,30.53,NW,308,0.0,0.0,97,0.00,,,0.00,weatherlink.com 1.10,2013-04-17 12:14:00,
2013-04-17 05:29:00,35.2,34.0,30.54,NW,308,0.0,0.0,96,0.00,,,0.00,weatherlink.com 1.10,2013-04-17 12:29:00,
2013-04-17 05:44:00,35.5,35.0,30.54,NNE,15,0.0,1.0,97,0.00,,,0.00,weatherlink.com 1.10,2013-04-17 12:44:00,
2013-04-17 05:59:00,35.7,35.0,30.55,NNE,15,0.0,0.0,97,0.00,,,0.00,weatherlink.com 1.10,2013-04-17 12:59:00,
2013-04-17 06:14:00,36.3,36.0,30.55,NNE,15,0.0,0.0,97,0.00,,,0.00,weatherlink.com 1.10,2013-04-17 13:14:00,
2013-04-17 06:29:00,36.7,36.0,30.55,NNE,15,0.0,0.0,97,0.00,,,0.00,weatherlink.com 1.10,2013-04-17 13:29:00,
2013-04-17 06:44:00,37.1,36.0,30.56,SSE,166,0.0,0.0,97,0.00,,,0.00,weatherlink.com 1.10,2013-04-17 13:44:00,
2013-04-17 06:59:00,37.2,37.0,30.56,SSE,165,0.0,0.0,97,0.00,,,0.00,weatherlink.com 1.10,2013-04-17 13:59:00,
2013-04-17 07:14:00,37.3,37.0,30.57,SSE,165,0.0,1.0,97,0.00,,,0.00,weatherlink.com 1.10,2013-04-17 14:14:00,
2013-04-17 07:29:00,37.9,37.0,30.57,SSE,165,0.0,0.0,97,0.00,,,0.00,weatherlink.com 1.10,2013-04-17 14:29:00,
2013-04-17 07:44:00,38.3,38.0,30.58,SSW,205,0.0,2.0,97,0.00,,,0.00,weatherlink.com 1.10,2013-04-17 14:44:00,
2013-04-17 07:59:00,38.6,38.0,30.59,NW,305,0.0,2.0,97,0.00,,,0.00,weatherlink.com 1.10,2013-04-17 14:59:00,
2013-04-17 08:14:00,39.4,39.0,30.59,East,101,0.0,1.0,97,0.00,,,0.00,weatherlink.com 1.10,2013-04-17 15:14:00,
2013-04-17 08:29:00,40.8,40.0,30.59,SW,228,0.0,1.0,96,0.00,,,0.00,weatherlink.com 1.10,2013-04-17 15:29:00,
2013-04-17 08:44:00,42.0,41.0,30.60,West,280,1.0,2.0,95,0.00,,,0.00,weatherlink.com 1.10,2013-04-17 15:44:00,
2013-04-17 08:59:00,42.5,41.0,30.60,WSW,240,0.0,1.0,94,0.00,,,0.00,weatherlink.com 1.10,2013-04-17 15:59:00,
2013-04-17 09:14:00,43.6,41.0,30.60,SW,235,0.0,1.0,91,0.00,,,0.00,weatherlink.com 1.10,2013-04-17 16:14:00,
2013-04-17 09:29:00,44.9,42.0,30.59,West,271,0.0,2.0,90,0.00,,,0.00,weatherlink.com 1.10,2013-04-17 16:29:00,
2013-04-17 09:44:00,45.7,42.0,30.59,SE,133,0.0,4.0,87,0.00,,,0.00,weatherlink.com 1.10,2013-04-17 16:44:00,
2013-04-17 10:00:00,47.4,43.0,30.59,SW,219,1.0,3.0,86,0.00,,,0.00,weatherlink.com 1.10,2013-04-17 17:00:00,
2013-04-17 10:15:00,48.7,43.0,30.59,WSW,239,0.0,4.0,81,0.00,,,0.00,weatherlink.com 1.10,2013-04-17 17:15:00,
2013-04-17 10:30:00,48.6,43.0,30.59,SE,125,1.0,4.0,81,0.00,,,0.00,weatherlink.com 1.10,2013-04-17 17:30:00,
2013-04-17 10:45:00,49.9,43.0,30.60,WSW,248,0.0,4.0,78,0.00,,,0.00,weatherlink.com 1.10,2013-04-17 17:45:00,
2013-04-17 11:00:00,51.4,43.0,30.59,WNW,295,1.0,3.0,74,0.00,,,0.00,weatherlink.com 1.10,2013-04-17 18:00:00,
2013-04-17 11:15:00,51.1,43.0,30.60,South,172,0.0,5.0,75,0.00,,,0.00,weatherlink.com 1.10,2013-04-17 18:15:00,
2013-04-17 11:30:00,51.8,43.0,30.60,SSE,150,3.0,5.0,73,0.00,,,0.00,weatherlink.com 1.10,2013-04-17 18:30:00,
2013-04-17 11:45:00,53.4,45.0,30.59,SW,224,1.0,6.0,72,0.00,,,0.00,weatherlink.com 1.10,2013-04-17 18:45:00,
2013-04-17 12:00:00,54.5,45.0,30.59,SSE,152,1.0,4.0,70,0.00,,,0.00,weatherlink.com 1.10,2013-04-17 19:00:00,
2013-04-17 12:15:00,55.7,45.0,30.59,SW,232,0.0,4.0,68,0.00,,,0.00,weatherlink.com 1.10,2013-04-17 19:15:00,
2013-04-17 12:30:00,56.3,44.0,30.59,SE,127,1.0,6.0,63,0.00,,,0.00,weatherlink.com 1.10,2013-04-17 19:30:00,
2013-04-17 12:46:00,56.8,44.0,30.58,SW,226,4.0,5.0,62,0.00,,,0.00,weatherlink.com 1.10,2013-04-17 19:46:00,
2013-04-17 13:00:00,58.9,46.0,30.58,SSE,167,0.0,5.0,62,0.00,,,0.00,weatherlink.com 1.10,2013-04-17 20:00:00,
2013-04-17 13:16:00,58.2,44.0,30.57,WNW,301,3.0,3.0,60,0.00,,,0.00,weatherlink.com 1.10,2013-04-17 20:16:00,
2013-04-17 13:30:00,58.2,44.0,30.57,SW,225,0.0,4.0,60,0.00,,,0.00,weatherlink.com 1.10,2013-04-17 20:30:00,
2013-04-17 13:45:00,58.5,43.0,30.57,ENE,67,0.0,4.0,57,0.00,,,0.00,weatherlink.com 1.10,2013-04-17 20:45:00,
2013-04-17 14:00:00,60.7,43.0,30.56,SSE,150,0.0,6.0,52,0.00,,,0.00,weatherlink.com 1.10,2013-04-17 21:00:00,
2013-04-17 14:15:00,60.1,42.0,30.56,NNW,328,1.0,4.0,52,0.00,,,0.00,weatherlink.com 1.10,2013-04-17 21:15:00,
2013-04-17 14:30:00,59.4,42.0,30.55,NW,318,2.0,5.0,52,0.00,,,0.00,weatherlink.com 1.10,2013-04-17 21:30:00,
2013-04-17 14:45:00,59.0,42.0,30.55,SSE,158,1.0,5.0,53,0.00,,,0.00,weatherlink.com 1.10,2013-04-17 21:45:00,
2013-04-17 15:00:00,58.3,41.0,30.55,WSW,249,0.0,1.0,54,0.00,,,0.00,weatherlink.com 1.10,2013-04-17 22:00:00,
2013-04-17 15:15:00,57.9,43.0,30.55,NW,324,2.0,3.0,57,0.00,,,0.00,weatherlink.com 1.10,2013-04-17 22:15:00,
2013-04-17 15:30:00,56.3,44.0,30.55,West,278,0.0,6.0,63,0.00,,,0.00,weatherlink.com 1.10,2013-04-17 22:30:00,
2013-04-17 15:45:00,57.2,44.0,30.55,West,280,0.0,3.0,61,0.00,,,0.00,weatherlink.com 1.10,2013-04-17 22:45:00,
2013-04-17 16:00:00,57.2,45.0,30.55,SW,224,0.0,3.0,63,0.00,,,0.00,weatherlink.com 1.10,2013-04-17 23:00:00,
2013-04-17 16:15:00,56.9,43.0,30.54,WSW,257,1.0,4.0,60,0.00,,,0.00,weatherlink.com 1.10,2013-04-17 23:15:00,
2013-04-17 16:30:00,56.4,43.0,30.54,SW,235,0.0,3.0,61,0.00,,,0.00,weatherlink.com 1.10,2013-04-17 23:30:00,
2013-04-17 16:45:00,56.5,43.0,30.54,SW,222,0.0,3.0,62,0.00,,,0.00,weatherlink.com 1.10,2013-04-17 23:45:00,
2013-04-17 17:00:00,57.1,44.0,30.53,SSW,195,0.0,1.0,62,0.00,,,0.00,weatherlink.com 1.10,2013-04-18 00:00:00,
2013-04-17 17:15:00,57.4,43.0,30.54,SSW,197,0.0,2.0,60,0.00,,,0.00,weatherlink.com 1.10,2013-04-18 00:15:00,
2013-04-17 17:30:00,56.9,43.0,30.54,SW,219,0.0,2.0,61,0.00,,,0.00,weatherlink.com 1.10,2013-04-18 00:30:00,
2013-04-17 17:45:00,56.6,44.0,30.53,West,262,0.0,2.0,63,0.00,,,0.00,weatherlink.com 1.10,2013-04-18 00:45:00,
2013-04-17 18:00:00,56.6,44.0,30.54,WNW,291,0.0,2.0,64,0.00,,,0.00,weatherlink.com 1.10,2013-04-18 01:00:00,
2013-04-17 18:15:00,56.5,44.0,30.54,SW,228,1.0,1.0,64,0.00,,,0.00,weatherlink.com 1.10,2013-04-18 01:15:00,
2013-04-17 18:30:00,56.1,44.0,30.54,SW,216,0.0,1.0,65,0.00,,,0.00,weatherlink.com 1.10,2013-04-18 01:30:00,
2013-04-17 18:45:00,55.4,45.0,30.54,WSW,249,0.0,2.0,67,0.00,,,0.00,weatherlink.com 1.10,2013-04-18 01:45:00,
2013-04-17 19:00:00,55.3,44.0,30.53,SW,233,0.0,3.0,65,0.00,,,0.00,weatherlink.com 1.10,2013-04-18 02:00:00,
2013-04-17 19:15:00,55.2,43.0,30.53,West,263,0.0,2.0,64,0.00,,,0.00,weatherlink.com 1.10,2013-04-18 02:15:00,
2013-04-17 19:31:00,54.9,42.0,30.53,WNW,291,4.0,6.0,63,0.00,,,0.00,weatherlink.com 1.10,2013-04-18 02:31:00,
2013-04-17 19:46:00,53.9,41.0,30.53,NW,319,1.0,3.0,61,0.00,,,0.00,weatherlink.com 1.10,2013-04-18 02:46:00,
2013-04-17 20:01:00,53.1,40.0,30.53,WSW,245,0.0,5.0,62,0.00,,,0.00,weatherlink.com 1.10,2013-04-18 03:01:00,
2013-04-17 20:16:00,52.3,41.0,30.54,WSW,240,0.0,2.0,65,0.00,,,0.00,weatherlink.com 1.10,2013-04-18 03:16:00,
2013-04-17 20:31:00,51.7,41.0,30.54,SW,218,0.0,1.0,68,0.00,,,0.00,weatherlink.com 1.10,2013-04-18 03:31:00,
2013-04-17 20:46:00,51.3,42.0,30.54,West,278,0.0,2.0,71,0.00,,,0.00,weatherlink.com 1.10,2013-04-18 03:46:00,
2013-04-17 21:01:00,50.3,42.0,30.54,West,278,0.0,0.0,73,0.00,,,0.00,weatherlink.com 1.10,2013-04-18 04:01:00,
2013-04-17 21:16:00,49.2,42.0,30.55,West,278,0.0,0.0,75,0.00,,,0.00,weatherlink.com 1.10,2013-04-18 04:16:00,
2013-04-17 21:31:00,49.2,42.0,30.55,West,278,0.0,0.0,76,0.00,,,0.00,weatherlink.com 1.10,2013-04-18 04:31:00,
2013-04-17 21:46:00,49.4,42.0,30.55,North,349,0.0,0.0,76,0.00,,,0.00,weatherlink.com 1.10,2013-04-18 04:46:00,
2013-04-17 22:01:00,49.4,42.0,30.55,North,349,0.0,0.0,76,0.00,,,0.00,weatherlink.com 1.10,2013-04-18 05:01:00,
2013-04-17 22:16:00,49.1,42.0,30.55,NNE,26,0.0,0.0,77,0.00,,,0.00,weatherlink.com 1.10,2013-04-18 05:16:00,
2013-04-17 22:31:00,48.7,42.0,30.55,NNE,33,0.0,0.0,78,0.00,,,0.00,weatherlink.com 1.10,2013-04-18 05:31:00,
2013-04-17 22:46:00,48.6,42.0,30.55,NNE,26,0.0,1.0,78,0.00,,,0.00,weatherlink.com 1.10,2013-04-18 05:46:00,
2013-04-17 23:01:00,48.4,42.0,30.55,NNE,27,0.0,1.0,79,0.00,,,0.00,weatherlink.com 1.10,2013-04-18 06:01:00,
2013-04-17 23:16:00,47.9,42.0,30.55,NNE,27,0.0,0.0,81,0.00,,,0.00,weatherlink.com 1.10,2013-04-18 06:16:00,
2013-04-17 23:31:00,47.9,42.0,30.55,NNE,27,0.0,0.0,81,0.00,,,0.00,weatherlink.com 1.10,2013-04-18 06:31:00,
2013-04-17 23:46:00,47.7,42.0,30.55,NNE,27,0.0,0.0,81,0.00,,,0.00,weatherlink.com 1.10,2013-04-18 06:46:00,